Theta_e
317 318 318 317 317 316 316 317 316 317 317 317 317 316 317 317 318 320 322 323 325 327 330 330 330 330 330 329 329 329 329 328 330 330 329 329 329 329 329 327 327 327 328 328 329 328 328 329 330 331 331 330 330 330 329 331 330 330 330 329 328 327 323 323 320 320 324 327 326 327 328 327 324 322 318 317 318 318 318 323 320 319 319 318 315
315 316 317 317 316 316 316 316 316 316 316 316 316 315 315 315 317 318 319 321 323 326 329 329 329 329 328 327 328 328 328 329 330 330 329 328 327 328 327 327 329 327 328 327 328 328 328 329 329 330 331 331 330 329 330 329 329 329 329 328 326 326 327 324 321 319 319 324 323 328 328 333 328 322 317 315 314 313 312 321 321 319 318 319 317
315 315 316 315 315 316 315 315 315 315 314 315 314 314 314 314 313 315 316 318 321 322 324 324 325 325 325 326 327 327 327 328 329 329 328 328 327 328 327 326 327 326 326 327 328 327 326 327 328 330 331 329 330 330 330 329 329 329 328 328 326 326 327 326 322 320 319 320 323 323 325 325 322 320 317 315 313 310 313 320 318 317 317 318 317
314 314 314 314 315 315 314 314 315 314 313 313 313 313 313 312 312 312 314 315 317 319 319 318 319 321 322 325 326 327 327 328 327 328 328 327 326 327 328 327 326 326 326 327 327 327 327 328 329 328 329 329 329 328 329 329 329 328 328 326 326 326 326 326 326 322 321 320 321 322 325 322 324 326 317 315 311 308 313 321 321 319 318 317 315
313 313 313 313 313 313 313 313 313 313 312 312 313 313 312 311 310 310 311 312 313 314 315 317 317 317 318 323 326 327 327 327 326 327 328 329 328 327 327 327 327 327 327 328 327 326 327 326 328 329 329 328 329 328 329 329 330 326 325 326 326 327 327 328 328 328 323 321 323 324 324 326 327 323 318 314 312 310 310 321 320 319 317 316 315
312 312 312 311 311 312 312 312 312 312 312 312 312 312 311 310 309 309 310 309 311 312 312 313 315 314 316 319 327 327 327 326 323 325 327 327 327 327 326 325 325 326 327 328 328 328 329 327 327 326 326 328 329 329 329 329 329 328 327 326 326 325 325 328 327 327 325 323 322 320 323 323 323 322 323 317 312 309 307 310 318 317 314 311 314
311 311 311 311 310 310 311 311 311 311 311 311 311 311 310 310 309 308 308 308 309 309 309 310 312 313 313 317 312 309 307 305 305 305 312 322 326 326 325 326 328 328 327 327 328 329 328 329 327 328 328 329 328 329 329 328 328 325 326 324 326 324 324 326 325 325 325 323 320 319 320 323 321 320 322 318 315 310 306 305 308 312 311 308 309
310 309 309 309 309 309 310 310 310 310 311 310 310 310 310 309 309 308 308 306 307 307 307 308 309 310 310 312 310 307 304 302 301 300 302 306 314 321 324 325 325 325 326 326 327 327 327 328 328 328 328 329 329 329 329 327 328 326 328 327 324 324 325 325 324 323 322 322 319 317 318 319 319 320 321 317 314 310 308 306 305 307 309 309 311
308 308 308 307 308 308 309 309 310 309 309 309 309 309 308 309 309 308 307 306 306 306 306 307 306 306 307 309 310 305 301 300 299 298 297 299 306 313 318 322 325 326 326 326 326 327 327 327 328 328 329 329 323 324 325 326 328 326 326 327 325 324 324 323 322 322 321 320 320 319 317 318 318 317 315 312 312 311 310 308 308 309 309 308 311
307 307 306 306 307 307 308 308 308 308 308 308 308 308 307 308 307 307 307 306 305 305 304 305 305 305 305 305 307 305 301 299 298 295 295 296 299 304 310 316 320 325 325 325 326 328 328 327 328 329 324 322 317 314 310 314 320 325 327 327 325 324 323 322 321 321 320 319 319 319 315 315 316 317 314 313 315 315 312 309 307 309 308 307 308
306 306 305 306 306 307 307 307 307 307 307 307 307 306 307 307 306 306 307 306 305 305 304 303 303 303 304 303 303 305 301 298 294 292 292 293 296 299 304 311 319 323 325 325 324 325 326 327 327 326 323 322 320 304 305 308 311 312 315 319 323 326 324 322 321 321 319 318 319 318 318 314 315 315 314 317 314 312 311 310 309 308 306 305 303
305 305 305 306 306 305 306 306 306 306 306 305 306 306 306 306 306 306 306 306 306 306 304 303 302 302 303 302 302 302 300 296 292 292 292 292 294 296 301 309 316 320 325 326 326 325 326 326 327 327 326 326 323 312 308 304 305 306 307 307 310 313 315 322 321 319 319 318 318 319 318 316 314 316 314 314 312 312 313 311 310 308 306 305 305
304 304 304 305 305 305 305 305 305 305 305 305 305 305 305 305 305 305 305 306 306 305 304 303 302 302 302 301 300 301 300 295 292 292 292 291 292 294 299 306 313 318 322 326 327 326 325 324 325 327 326 323 324 321 317 311 303 302 304 306 307 305 304 303 311 324 322 319 319 319 318 317 314 315 316 316 320 312 314 312 310 310 310 307 307
304 303 303 304 304 304 304 304 304 304 304 304 304 304 304 304 304 305 305 305 305 304 304 304 303 302 301 300 300 300 299 294 292 292 291 291 291 293 303 309 314 317 321 324 326 325 324 323 323 324 327 327 326 326 320 318 315 315 317 321 321 313 304 297 299 304 314 324 321 319 320 322 319 319 325 318 316 314 313 312 314 310 311 311 313
303 303 303 303 303 303 303 303 303 304 304 304 304 303 303 304 304 304 304 303 303 303 303 303 303 303 302 301 300 299 298 293 292 292 291 291 291 295 304 308 313 317 320 323 325 322 322 325 324 322 324 326 326 320 323 321 320 320 321 322 322 321 321 319 319 320 322 324 325 323 322 321 323 323 323 326 322 317 315 314 315 316 319 318 317
302 303 302 302 303 303 303 303 303 303 303 303 303 303 303 303 303 303 303 303 303 303 303 304 303 302 302 301 299 298 298 293 292 292 292 291 292 299 303 308 312 314 316 319 323 320 314 314 321 323 323 322 316 304 312 324 323 322 321 322 321 312 303 296 292 294 302 320 322 312 306 301 299 304 303 313 323 324 321 324 322 320 318 317 314
301 302 302 302 302 302 302 302 302 302 302 301 301 302 302 302 303 304 302 302 301 301 301 301 302 302 302 301 299 298 298 295 293 292 292 291 293 298 303 308 311 312 311 313 320 310 307 305 306 312 321 323 312 302 305 310 324 323 322 320 316 311 307 304 295 293 294 293 293 293 293 294 295 296 296 296 304 315 321 317 317 316 315 314 313
301 301 301 302 302 302 302 302 301 301 301 300 300 301 302 302 302 304 302 301 300 301 301 301 301 301 301 300 300 298 298 297 293 293 292 292 293 297 301 303 305 309 309 309 315 310 306 303 303 298 301 308 301 300 300 311 321 321 321 316 314 310 308 308 306 301 294 294 295 295 296 297 298 299 297 298 299 307 319 314 317 316 313 313 310
301 301 301 302 302 302 302 302 302 301 300 301 301 300 300 301 302 302 302 302 301 301 301 300 300 300 300 299 300 299 297 297 294 292 292 292 293 296 296 298 300 304 305 305 306 303 301 302 299 294 294 294 290 295 298 311 322 320 321 316 313 311 308 308 307 306 307 307 308 309 307 306 309 308 306 300 301 306 311 311 313 314 312 311 310
301 301 301 302 302 302 302 302 302 301 300 301 301 300 300 300 300 300 301 301 301 301 300 300 299 299 299 299 298 298 297 296 296 293 293 292 292 294 295 294 295 299 299 299 299 298 297 297 297 292 290 290 291 290 291 293 318 322 321 318 314 310 310 309 310 310 309 310 310 310 309 309 308 307 307 306 307 307 307 309 310 311 311 312 310
301 301 301 301 301 302 302 302 302 301 301 301 301 301 300 299 299 299 299 300 300 300 299 299 299 298 299 299 298 297 297 296 296 293 293 293 292 293 294 293 294 296 296 295 296 294 294 295 295 293 290 290 291 291 292 292 295 316 320 319 317 310 307 310 309 306 311 309 308 308 308 307 306 305 304 304 304 305 305 305 307 309 307 306 305
301 301 300 300 301 301 302 303 303 302 301 301 300 300 300 299 298 298 298 298 298 298 298 298 298 298 298 299 298 297 298 297 295 294 293 293 292 292 293 294 293 295 293 293 293 293 293 293 294 292 290 290 290 291 291 292 293 307 311 299 298 300 311 311 311 311 309 307 307 305 305 304 303 302 302 303 303 303 303 304 304 305 307 307 305
301 301 301 300 301 301 302 303 302 303 302 301 300 300 300 299 298 298 297 297 297 296 296 297 297 297 297 297 298 297 297 297 295 294 293 292 292 292 291 292 292 296 293 292 292 292 293 293 294 292 291 291 290 291 291 292 294 292 292 296 297 298 304 310 309 308 308 307 306 304 302 302 301 300 301 301 302 302 303 303 303 302 302 303 303
301 300 301 300 301 300 300 302 302 302 301 301 300 299 299 299 298 298 297 296 295 295 295 295 296 297 296 296 297 297 297 297 295 293 294 292 292 292 291 291 291 294 295 294 293 293 292 292 292 290 291 291 291 291 291 291 292 291 292 292 296 300 309 308 307 307 304 304 303 302 302 302 301 301 301 302 302 302 303 302 302 303 303 303 304
300 300 299 299 300 300 300 301 302 302 302 301 299 298 298 299 297 297 297 296 295 294 294 294 294 296 296 295 296 296 297 297 296 295 293 293 293 292 292 291 291 291 294 295 294 293 291 290 290 290 290 291 291 292 292 291 291 291 292 293 297 299 301 302 301 300 298 297 297 298 298 299 300 301 303 303 302 301 301 301 302 303 303 303 302
300 299 299 300 299 299 299 299 300 302 302 301 300 299 298 298 297 296 296 295 295 294 294 293 293 294 295 293 294 295 296 296 296 295 294 294 294 293 292 292 292 292 293 294 292 291 291 291 290 291 291 291 293 292 292 292 291 291 292 294 296 296 297 297 297 296 295 295 295 295 296 298 298 299 301 301 301 300 300 300 300 300 300 299 298
300 300 300 299 300 299 299 299 299 300 302 301 300 300 299 299 298 296 295 295 294 294 293 293 292 292 293 293 293 293 293 294 294 293 292 293 294 295 295 294 294 293 293 294 293 294 292 292 291 290 291 290 291 291 291 291 292 293 293 293 293 294 294 295 295 295 294 294 294 294 295 296 297 297 297 297 297 298 300 300 299 299 299 298 297
299 299 298 299 299 299 299 294 297 298 300 301 300 299 299 299 298 295 294 294 293 293 293 292 292 292 292 292 292 291 291 292 292 290 290 290 291 293 294 294 293 293 292 292 293 293 292 291 291 291 291 291 291 291 291 291 290 290 291 292 292 292 293 293 293 293 294 295 295 295 295 295 294 295 295 295 295 296 298 298 299 298 298 298 295
300 299 299 298 298 299 299 299 298 298 299 301 300 299 297 299 298 296 296 294 293 294 293 292 293 293 293 292 291 290 290 291 291 289 288 288 288 290 292 292 293 293 292 290 293 291 290 289 288 288 288 287 287 288 288 289 288 289 289 290 291 291 291 291 290 290 291 292 291 292 292 293 293 294 294 294 294 295 297 297 298 298 298 298 296
300 299 299 298 298 299 300 298 299 298 298 298 299 295 289 289 292 298 295 289 286 287 289 292 292 293 293 293 294 291 290 292 289 288 288 288 289 288 288 288 289 291 290 290 291 289 288 287 287 286 286 286 286 286 286 286 286 286 287 287 288 289 289 289 289 289 289 289 290 289 290 290 290 292 292 292 293 294 294 293 296 296 295 294 294
298 298 298 298 298 299 299 299 299 298 298 298 298 297 296 294 289 289 290 291 290 288 288 289 288 288 292 292 293 291 290 289 288 288 288 288 288 288 288 288 289 289 289 290 289 288 287 287 286 286 286 286 285 285 286 286 285 286 286 286 287 286 287 287 288 288 287 287 288 288 288 289 289 290 290 290 291 293 293 293 294 295 294 294 293
298 298 298 298 300 299 299 299 299 298 297 297 297 296 296 296 296 290 289 289 289 288 289 288 289 289 289 290 291 292 290 290 289 288 289 289 288 288 288 289 289 289 289 290 289 289 288 287 286 286 286 286 286 286 286 286 286 286 286 286 286 286 286 286 288 289 288 287 287 287 287 288 289 289 290 289 289 291 291 290 291 290 291 293 293
302 300 299 298 298 299 298 298 299 298 298 297 297 296 295 294 293 295 292 287 287 288 288 289 288 289 289 290 290 289 289 289 289 289 289 289 289 289 289 289 290 289 290 291 290 289 289 288 288 288 287 286 287 286 286 286 286 286 286 286 286 287 288 289 288 289 288 288 288 288 288 288 289 289 289 289 289 289 289 289 291 291 291 289 289
301 299 299 299 297 299 299 299 299 299 298 297 297 296 295 296 295 294 293 294 295 292 287 287 288 288 289 290 290 290 290 289 289 289 289 289 289 289 289 289 290 291 291 293 290 290 291 290 289 289 289 288 288 288 287 287 287 287 287 288 289 289 290 291 290 288 288 288 288 288 288 288 288 288 288 289 289 289 288 289 289 288 289 290 289
300 294 291 295 298 299 299 299 299 300 297 297 296 296 296 295 295 294 294 293 292 292 293 296 291 289 292 291 290 290 290 289 290 289 290 290 290 289 291 293 291 293 294 295 294 293 291 291 291 291 291 289 289 288 288 289 288 288 288 288 288 289 289 288 289 289 288 288 288 288 288 288 289 288 288 288 288 288 288 288 289 290 290 289 288
300 299 299 297 298 300 301 304 300 298 297 298 298 296 296 296 294 294 294 294 293 293 292 294 294 293 291 291 290 290 289 290 289 289 290 290 290 291 291 290 290 292 292 293 293 293 293 292 292 292 292 292 291 290 290 289 289 289 290 289 288 288 288 288 287 288 288 288 288 288 288 288 289 288 288 288 289 288 288 288 288 287 288 287 287
300 299 298 297 299 300 300 300 300 299 295 295 297 297 296 295 294 295 294 294 293 293 293 293 294 295 293 294 292 291 290 290 290 290 290 290 290 292 293 292 291 292 291 292 292 292 292 292 293 292 292 291 291 291 291 291 291 291 290 290 290 288 288 288 288 287 287 288 288 288 288 289 290 289 288 287 287 287 287 287 287 287 287 287 286
300 298 298 299 300 301 302 298 297 293 296 296 298 297 295 296 295 294 293 293 292 291 293 293 291 292 291 292 295 293 293 291 290 290 290 290 290 290 291 291 292 291 291 292 292 292 292 292 293 293 292 292 292 291 291 290 290 289 288 289 288 288 289 288 288 288 288 288 288 288 287 288 288 288 288 287 287 286 287 287 287 287 287 287 288
300 293 292 293 293 299 298 299 296 297 298 297 296 295 293 294 294 294 294 294 293 292 292 293 293 293 292 292 292 294 292 291 289 289 289 290 290 291 291 291 291 291 291 292 291 292 293 292 292 293 293 293 292 291 291 290 289 289 289 288 288 288 288 288 288 287 287 287 287 287 287 287 287 287 287 287 287 286 286 286 287 287 287 286 286
298 300 296 291 295 295 295 297 298 298 295 299 296 296 295 294 294 294 294 293 293 291 290 292 293 293 293 293 291 292 291 289 289 290 289 289 289 290 290 290 290 291 291 292 291 291 292 292 292 292 292 292 292 291 291 291 290 289 289 288 288 287 287 287 287 287 287 287 287 287 287 287 288 287 286 287 287 287 286 286 286 286 286 287 287
297 298 293 294 293 296 296 295 297 297 299 295 296 295 295 293 295 293 295 293 292 292 292 293 294 294 293 291 289 288 291 290 290 290 290 289 289 290 290 290 289 291 291 291 291 291 291 291 291 291 291 291 291 292 292 292 289 289 288 288 287 287 287 287 287 287 287 287 287 287 287 287 287 287 287 287 288 288 287 287 286 287 287 287 287
298 296 296 295 297 296 296 294 296 295 297 296 296 295 294 293 295 295 293 292 294 292 292 294 294 294 291 287 288 288 292 292 291 290 291 291 291 291 290 291 292 292 291 291 291 289 290 290 289 289 290 289 289 289 289 290 289 288 287 287 287 287 287 287 288 288 287 287 287 287 286 286 287 288 287 288 287 287 286 286 286 286 286 287 286
299 297 297 298 295 295 295 295 296 295 298 296 296 293 295 297 296 297 293 292 293 292 293 292 293 295 293 289 290 288 293 293 290 291 291 291 291 290 291 290 291 292 292 292 292 292 290 290 290 290 290 290 291 289 290 289 289 289 288 288 287 288 287 287 288 287 287 287 287 288 287 287 287 287 286 286 286 286 286 286 286 286 286 286 286
297 297 296 296 295 295 295 296 295 295 298 292 294 294 295 295 298 296 295 295 294 294 294 295 293 293 294 293 290 292 293 293 292 292 291 290 291 289 290 291 292 291 291 291 291 290 290 289 289 289 291 291 292 293 291 290 290 289 289 287 287 287 287 287 287 287 287 287 288 287 286 287 286 286 286 286 286 286 285 286 286 285 286 285 285
299 298 297 296 297 295 294 297 295 296 292 293 295 298 295 297 296 295 294 295 293 295 294 293 293 292 292 294 294 294 294 293 291 291 291 291 290 289 290 291 290 291 290 289 290 291 290 289 289 288 289 289 291 292 291 290 291 289 289 289 288 288 288 288 288 288 288 288 288 288 287 287 287 286 286 286 286 286 285 286 286 286 285 286 285
299 298 296 296 295 293 294 296 294 295 294 294 294 295 296 298 298 296 295 295 295 295 295 294 295 294 292 293 294 292 293 294 293 292 291 291 291 291 289 290 290 291 290 290 290 291 289 289 289 289 289 289 290 290 291 291 290 290 292 291 289 289 289 289 289 289 288 288 288 287 287 287 286 285 285 285 286 285 285 285 285 285 285 285 285
300 297 295 294 294 293 294 296 296 298 295 294 294 294 294 294 296 294 292 295 295 293 294 295 295 294 295 294 293 294 294 292 292 292 292 294 293 292 290 289 289 289 290 290 289 290 289 289 289 289 288 289 289 290 290 291 291 290 290 290 289 288 287 288 288 288 288 288 287 287 287 287 286 286 286 286 285 285 284 285 285 285 285 286 285
300 296 295 295 295 294 295 295 294 292 295 293 294 293 293 292 294 293 295 294 295 294 295 295 295 296 294 295 294 294 293 293 294 292 292 293 292 292 291 290 289 289 289 289 289 289 289 289 290 289 289 289 289 289 290 291 291 290 288 287 286 285 285 286 287 287 286 287 288 287 286 286 285 285 285 284 284 284 283 284 285 285 285 286 285
297 296 295 295 295 295 294 296 293 294 294 295 293 293 293 293 294 293 294 294 294 294 295 296 295 296 296 295 294 294 294 294 294 294 292 292 293 294 291 290 289 289 289 289 289 288 288 289 289 289 290 289 290 290 289 290 289 288 287 285 283 282 283 283 284 284 285 287 287 287 287 286 286 285 286 285 285 284 283 283 284 285 285 284 284
298 296 296 296 294 295 295 295 295 295 296 294 293 293 293 293 293 294 293 293 294 294 294 294 294 296 296 295 294 294 294 294 294 294 293 293 292 292 291 291 291 290 289 289 289 290 289 289 289 288 288 288 288 289 289 288 287 286 283 282 281 281 282 283 283 282 283 285 286 286 287 286 286 284 284 285 285 284 282 283 283 285 285 285 283
298 297 296 296 295 295 296 296 296 295 296 294 293 293 293 292 293 293 293 294 294 293 293 294 294 295 295 295 294 295 295 295 295 295 295 294 294 293 291 290 290 289 289 289 289 290 290 290 290 289 289 290 288 288 287 286 285 283 281 280 281 281 281 282 283 282 281 281 284 286 286 286 285 284 284 284 284 283 283 284 284 284 285 284 284
Wind_Speed
7 7 7 7 8 8 9 8 10 9 10 9 10 11 10 12 12 11 12 12 13 13 11 10 9 8 10 9 10 9 9 9 8 8 9 9 5 4 5 6 7 7 5 6 8 10 11 10 9 8 7 7 6 6 7 9 8 7 7 6 6 6 7 6 6 4 2 3 7 8 7 3 11 10 11 11 11 9 9 9 12 11 10 8 9
9 8 7 8 9 8 8 8 7 9 10 9 10 11 11 11 12 12 11 12 13 14 12 10 9 11 11 11 11 10 8 8 8 7 7 7 7 5 6 8 7 8 7 7 7 7 9 9 10 9 9 8 7 7 8 8 9 9 6 7 7 6 7 8 7 7 5 3 5 3 4 2 3 6 11 12 11 10 7 8 9 11 10 9 9
9 8 8 8 9 8 8 8 9 9 10 9 11 11 10 11 13 12 12 12 12 13 14 15 15 14 14 13 11 10 9 8 6 5 3 6 6 5 7 6 7 5 6 7 7 9 11 9 8 8 6 7 8 8 7 9 9 8 8 6 8 7 8 8 7 6 8 6 7 7 6 5 8 9 12 12 12 12 8 10 11 9 9 10 10
9 10 10 9 9 9 10 9 9 10 11 9 11 10 11 11 12 12 13 12 14 12 13 14 14 14 15 14 11 9 8 6 5 4 5 6 8 6 3 4 7 8 6 6 6 8 10 8 5 2 4 8 7 7 7 7 7 6 6 8 7 8 7 6 6 6 7 7 7 9 7 8 11 5 10 10 12 10 8 10 11 11 11 11 11
10 10 10 10 9 10 10 10 10 11 10 9 11 11 11 11 11 13 13 13 13 13 13 13 13 14 14 16 10 8 7 7 8 5 3 3 3 3 4 3 4 5 6 5 7 9 9 10 6 5 6 7 6 8 7 7 5 5 7 8 7 7 7 6 6 6 7 7 5 3 6 2 4 9 5 12 10 9 9 11 11 10 9 12 10
9 10 10 11 11 12 11 10 10 10 10 10 11 11 11 12 12 12 13 14 13 13 14 14 12 14 15 17 12 12 11 13 14 13 8 4 3 4 6 7 7 6 6 5 4 6 4 9 8 7 7 8 7 7 6 7 5 5 5 8 10 9 7 6 6 5 7 7 7 4 4 6 2 6 6 10 11 10 9 9 10 10 9 10 11
10 11 10 11 11 11 11 11 11 10 10 11 10 11 11 11 13 13 13 13 13 14 14 15 13 12 14 15 18 16 15 13 13 15 15 13 8 5 4 4 5 4 4 6 5 3 5 8 7 7 9 8 7 7 6 4 5 4 8 8 9 7 7 6 7 7 7 7 5 6 6 4 7 9 9 9 12 11 10 8 7 8 8 10 6
10 10 10 11 11 12 12 12 12 12 11 11 11 12 12 12 12 12 13 14 14 15 15 15 14 13 13 13 12 12 13 15 15 14 14 12 11 10 7 6 6 6 6 6 4 4 4 6 9 7 8 8 7 7 6 7 5 9 7 9 10 9 8 7 7 7 7 5 7 7 5 7 9 11 10 11 11 9 9 9 8 7 7 7 6
10 11 11 11 11 11 10 10 10 12 13 12 12 13 12 12 12 12 12 12 12 14 14 14 15 16 15 14 12 12 14 13 12 13 13 14 11 10 9 9 7 5 5 5 5 5 4 7 9 10 9 9 8 6 5 6 4 5 6 8 10 10 8 7 7 8 7 6 7 6 7 7 9 10 10 8 12 12 9 9 7 7 7 7 7
10 10 11 10 9 10 11 10 11 11 12 13 13 12 12 12 11 12 13 12 11 12 14 14 15 15 16 16 14 10 10 9 20 22 16 12 11 10 9 8 8 7 5 4 4 3 3 5 9 19 16 8 9 11 8 11 10 7 7 8 10 9 9 8 8 8 8 8 8 7 9 9 9 10 11 8 6 10 9 10 8 7 7 8 6
9 9 10 9 9 10 10 11 11 13 12 12 12 13 13 12 11 12 11 11 10 10 11 14 15 14 14 14 15 12 10 13 25 21 21 21 13 10 9 8 7 7 5 3 4 4 4 2 4 7 12 11 8 9 10 13 12 14 12 12 12 10 10 9 9 9 9 9 8 7 6 8 9 11 11 5 5 9 9 8 8 7 7 9 8
9 9 9 9 10 11 10 11 12 13 12 13 14 12 12 12 12 12 11 12 11 7 10 11 12 13 11 14 13 14 12 24 27 24 22 21 18 11 8 6 7 6 6 4 3 2 2 3 2 3 5 8 4 6 6 9 13 13 12 9 7 6 8 9 10 8 8 8 8 8 8 6 8 4 10 7 5 7 7 8 8 9 8 7 7
9 10 11 11 12 11 11 11 12 12 13 13 12 13 14 14 13 12 13 11 11 11 8 9 11 12 13 14 13 13 12 25 27 27 24 23 23 17 7 7 6 7 6 6 5 2 1 3 4 3 6 8 3 2 2 4 3 9 12 14 14 13 7 10 8 6 5 7 8 7 9 6 9 8 6 7 2 4 5 7 8 8 7 8 8
10 11 11 11 12 12 12 12 11 10 10 10 11 12 13 13 12 11 10 12 11 11 10 9 8 10 11 11 11 12 11 24 26 27 26 25 23 18 9 9 7 6 6 6 5 2 2 4 4 4 2 3 4 4 3 4 6 6 5 4 4 5 6 10 9 6 2 4 4 6 6 3 5 4 1 8 11 7 8 3 5 8 7 6 4
10 10 11 12 12 12 12 12 12 12 12 11 9 10 10 10 11 10 10 11 12 12 12 10 10 9 8 9 9 11 10 25 26 28 27 26 25 15 9 9 8 8 7 7 4 1 5 5 0 2 2 2 3 3 3 2 1 2 3 6 5 1 1 1 1 1 2 1 0 3 4 6 4 4 2 2 4 7 9 8 5 4 4 4 4
10 9 10 11 12 12 12 12 12 12 12 12 12 11 9 9 8 8 8 9 10 11 12 11 11 12 10 9 8 10 11 23 26 26 28 28 26 11 8 9 9 9 10 11 8 7 8 7 3 2 2 5 7 7 6 9 9 8 6 3 4 5 4 1 1 2 3 1 4 6 7 5 5 6 3 4 1 3 6 5 3 4 7 5 5
10 10 10 11 11 12 12 12 12 12 13 13 13 12 11 10 8 7 8 9 10 11 11 11 11 12 13 9 10 12 12 20 25 26 26 29 23 12 11 9 10 10 10 10 5 6 7 9 8 7 3 3 3 11 14 10 8 7 7 7 4 5 3 2 8 11 10 13 14 13 11 11 11 11 12 12 8 3 4 5 5 6 7 6 4
9 9 9 10 11 11 12 12 12 12 12 13 13 12 12 11 11 9 8 9 10 10 10 10 11 11 14 13 12 12 13 18 24 24 26 26 23 13 12 12 12 10 10 11 9 7 9 16 15 9 8 8 6 13 12 7 1 3 3 8 7 6 4 3 5 6 9 12 13 13 13 13 13 13 13 13 14 9 1 6 5 6 6 7 5
9 9 9 10 10 10 10 10 10 11 12 12 12 12 12 11 11 11 10 8 8 8 8 9 9 10 11 13 18 15 13 16 22 24 25 25 22 11 13 9 10 11 10 11 10 10 10 12 18 15 11 10 12 5 3 5 7 5 5 7 7 6 6 6 6 7 5 6 6 7 8 9 7 7 9 15 14 10 7 5 3 4 8 7 10
9 9 8 8 9 10 9 10 10 11 12 11 11 11 10 10 12 12 10 10 8 8 9 9 10 9 9 11 12 13 13 14 18 22 23 24 25 17 12 11 14 12 11 10 9 10 11 11 12 20 20 16 16 11 7 6 3 5 5 5 6 5 6 5 5 6 6 5 6 6 8 7 6 7 7 8 8 8 8 6 5 4 1 9 11
8 8 8 9 10 10 10 9 10 10 10 10 9 9 9 10 11 11 11 10 10 9 10 9 8 8 8 9 10 11 11 13 14 22 21 23 24 20 10 14 11 10 8 9 9 10 10 10 9 17 20 16 15 16 14 9 4 2 4 6 4 10 9 5 7 8 6 7 6 7 7 7 7 6 6 7 7 6 6 7 6 5 7 6 6
7 8 8 8 9 9 8 8 7 7 9 9 9 9 9 10 12 11 10 10 11 11 11 8 8 8 8 8 8 9 11 15 14 17 21 21 21 23 13 12 13 9 11 10 10 10 11 10 10 14 18 20 15 17 18 17 17 6 5 11 17 16 8 6 6 6 7 6 6 6 6 6 6 6 6 6 7 7 7 7 7 8 8 5 10
8 7 7 9 8 8 7 8 8 7 8 8 8 8 8 10 10 10 11 11 11 11 11 10 8 9 8 7 7 8 9 10 15 16 20 21 21 20 20 16 17 12 11 11 12 10 9 9 9 18 19 20 19 18 18 19 14 14 11 12 15 15 11 6 6 6 6 6 5 6 6 6 5 5 5 6 6 6 7 7 9 10 11 10 10
7 7 6 8 6 9 8 7 7 6 7 7 8 8 7 7 8 9 9 10 10 10 10 10 9 10 10 8 8 8 8 9 11 16 16 20 18 20 19 19 18 12 11 10 10 10 12 9 11 19 19 20 19 17 20 18 14 19 19 16 11 9 6 7 6 5 7 7 6 5 6 6 6 5 5 5 5 5 7 8 9 10 11 10 9
6 9 9 8 7 8 6 5 4 5 5 6 7 8 9 9 8 8 8 9 9 10 10 10 10 9 10 11 10 9 9 8 9 12 16 17 18 18 18 19 18 16 11 10 10 10 13 17 18 18 19 19 19 17 16 19 21 19 20 18 14 10 9 7 8 9 9 9 8 8 8 7 6 7 6 6 7 7 8 7 7 8 9 9 10
8 8 7 6 7 8 7 6 5 4 4 5 6 7 8 7 7 7 7 8 8 9 9 10 10 9 8 10 10 10 10 9 10 10 11 13 13 16 16 16 17 16 14 10 14 15 16 16 18 17 16 16 14 12 11 13 18 19 19 17 12 11 10 10 9 10 9 8 8 8 6 6 7 6 6 5 5 6 6 7 7 7 7 8 9
6 5 6 6 5 6 6 5 5 4 4 5 5 5 6 5 5 7 6 7 7 8 9 9 9 9 8 9 9 10 10 10 10 9 10 10 9 9 10 11 14 14 11 9 10 9 12 12 11 13 13 16 16 13 13 16 16 14 12 12 11 10 11 11 10 10 9 8 8 8 7 6 7 9 7 6 7 6 4 5 6 6 7 7 9
4 6 7 7 7 7 6 7 6 5 4 5 4 4 5 5 5 5 5 6 6 7 8 8 9 10 9 8 8 9 9 8 8 9 9 9 9 7 7 7 9 8 10 9 8 8 8 10 12 11 11 12 12 11 11 11 12 12 11 10 10 10 12 15 15 12 9 7 6 7 8 9 9 7 7 8 7 7 6 5 5 7 6 7 8
6 6 5 6 7 7 6 6 7 6 6 5 4 5 3 5 4 5 5 3 3 4 6 6 7 8 7 7 8 7 8 8 8 8 8 8 7 7 7 7 6 7 9 12 9 10 10 12 11 11 11 10 10 10 10 10 10 11 12 11 10 10 10 10 11 10 9 9 9 8 7 8 8 8 8 9 9 8 7 7 7 5 5 6 7
5 6 6 5 5 5 5 6 7 6 7 6 4 2 5 5 4 3 3 2 1 4 4 5 4 5 7 6 4 5 7 6 10 12 12 12 13 12 10 11 8 8 10 11 8 8 9 8 9 9 9 9 9 9 9 9 9 10 10 10 10 10 10 10 10 9 8 8 7 8 8 8 8 9 9 9 8 8 8 8 6 7 7 6 7
4 5 6 6 4 5 4 5 6 6 6 6 7 3 5 2 7 8 6 3 2 1 3 2 4 5 5 7 5 2 8 11 11 13 13 12 12 12 13 12 11 10 9 6 8 8 8 8 8 8 8 8 9 9 8 8 8 7 7 7 8 8 8 9 8 7 8 8 8 7 7 8 8 8 8 7 7 8 8 7 8 8 7 6 7
4 3 4 5 4 5 6 6 6 7 5 6 7 7 7 3 3 3 2 2 4 2 3 4 5 5 6 6 4 6 11 15 13 13 13 13 13 12 12 13 12 10 10 5 6 6 6 6 6 7 7 8 8 7 8 8 8 7 6 7 7 7 7 7 6 7 6 7 6 6 6 6 7 7 7 7 7 7 7 6 7 7 6 5 5
1 3 4 6 6 4 4 4 5 6 7 7 5 6 7 7 7 4 4 7 4 3 4 6 7 6 7 10 12 12 12 13 14 13 14 13 13 12 12 12 11 10 7 4 4 4 4 5 6 6 6 6 6 6 7 8 7 7 7 7 7 6 6 6 6 7 6 6 6 6 5 5 5 5 5 5 5 5 4 4 3 4 4 4 5
5 5 4 5 7 7 5 4 4 4 6 5 5 6 5 6 7 6 7 4 0 4 7 7 7 6 7 10 12 14 14 15 15 14 14 16 16 16 11 7 9 7 3 5 3 4 4 5 4 5 5 6 6 5 6 6 6 6 6 6 6 6 7 5 6 6 5 5 4 4 4 4 4 4 4 3 3 4 4 4 4 3 3 3 3
5 3 3 7 5 5 6 5 4 3 4 5 6 6 7 6 5 7 7 6 6 8 7 0 7 4 6 8 11 13 13 14 16 13 16 17 16 14 10 5 4 5 5 5 5 5 5 5 5 4 4 5 5 5 6 6 5 5 5 5 6 6 5 5 5 5 4 4 5 5 4 4 3 3 3 4 4 5 5 4 3 3 3 4 4
4 4 6 6 4 4 2 1 3 4 4 4 5 5 5 5 6 6 5 5 6 7 5 4 5 6 10 8 12 10 11 14 15 13 15 16 18 12 7 6 5 6 6 5 4 4 4 4 5 4 4 3 4 4 3 4 4 4 4 5 5 4 5 4 4 4 4 4 4 4 4 4 4 4 4 5 4 4 4 4 4 4 4 4 4
3 5 4 4 4 4 4 5 5 3 2 3 4 6 5 5 5 5 5 6 5 4 5 5 5 5 7 5 8 8 8 10 11 13 13 13 15 10 7 7 6 6 6 6 4 4 5 4 4 4 3 3 3 3 3 4 4 4 4 4 4 4 4 4 4 4 3 4 4 3 2 1 0 1 4 4 4 4 4 4 4 4 3 3 4
6 4 3 4 3 4 2 4 6 7 2 4 3 4 5 5 4 5 4 4 4 4 6 6 5 5 7 7 8 6 5 7 7 7 9 9 8 6 6 7 7 7 7 7 6 4 5 4 3 3 3 2 3 4 5 5 4 4 4 3 3 3 3 5 3 1 1 0 1 1 3 5 5 5 5 5 5 3 2 1 1 1 1 2 1
4 3 4 2 5 4 2 1 2 2 2 3 3 3 2 3 4 4 5 4 3 3 3 4 4 5 5 5 5 6 6 4 4 5 5 6 5 5 7 7 7 8 8 8 8 6 3 3 3 3 2 2 2 4 4 3 2 2 2 1 0 1 2 0 0 2 3 4 5 5 5 5 4 5 5 5 4 4 4 5 4 3 4 4 4
2 2 3 5 5 5 8 3 1 3 2 2 3 3 3 4 4 4 4 3 4 3 2 4 4 4 2 3 3 4 5 4 4 4 4 4 5 7 7 6 6 7 7 8 8 8 6 5 4 4 4 4 4 3 3 2 1 1 1 0 1 3 4 4 4 4 3 3 3 3 5 5 5 5 3 3 2 3 4 4 4 4 3 1 1
3 3 5 3 5 6 5 3 4 4 2 4 3 4 4 4 3 3 2 2 3 4 4 4 4 3 2 1 5 3 4 4 5 4 5 4 4 6 6 6 4 6 6 7 7 7 7 7 6 6 5 5 3 2 1 1 1 1 2 3 5 4 3 3 4 4 5 6 5 5 5 3 3 3 2 1 3 1 1 2 2 0 1 3 4
2 3 4 3 4 3 4 3 4 5 3 3 3 3 3 4 3 1 3 3 3 2 2 2 3 3 2 2 6 7 4 4 4 4 4 5 5 5 5 5 5 4 5 6 6 5 6 7 5 5 5 5 4 5 4 2 0 2 3 4 3 2 3 3 1 2 3 4 4 4 3 3 2 1 4 4 5 5 6 5 3 3 2 2 3
4 3 3 2 3 3 3 3 3 5 2 2 2 2 2 3 3 3 2 3 2 3 2 2 3 3 2 4 4 5 2 4 4 5 3 3 3 3 3 3 4 4 4 5 5 5 4 5 5 5 5 5 6 5 5 4 7 7 3 3 2 3 3 2 0 3 3 2 1 1 1 4 2 2 4 4 5 5 4 4 5 3 3 6 7
5 3 2 3 3 3 3 4 4 3 2 3 2 2 2 3 2 3 3 3 2 3 2 2 3 2 2 2 4 2 3 3 4 3 4 2 2 2 2 1 2 3 3 3 4 4 4 4 4 4 5 6 6 6 5 5 4 5 7 3 3 3 3 4 5 4 4 5 6 6 3 2 3 2 2 3 2 4 3 4 3 4 6 4 5
4 2 2 3 2 3 4 3 3 2 4 5 2 2 2 2 3 3 4 3 2 2 2 1 0 1 2 2 3 2 2 2 2 3 3 3 1 3 2 2 2 4 3 3 3 4 4 4 5 4 5 4 6 6 6 5 5 5 4 5 6 5 4 4 5 5 4 5 5 6 7 3 2 5 5 4 4 4 5 3 2 3 5 5 4
3 2 2 2 2 3 3 2 3 4 4 4 3 4 2 1 1 2 2 3 2 1 3 1 2 1 0 2 2 3 3 2 3 3 1 2 2 1 3 2 0 1 1 2 2 2 3 4 4 4 5 5 4 5 5 5 6 4 4 5 6 5 5 5 7 8 5 5 6 5 5 5 6 5 5 6 5 3 2 2 4 3 2 3 2
4 2 2 2 2 3 3 3 2 2 4 4 4 4 3 4 2 2 2 2 3 3 2 1 1 1 1 1 1 2 2 3 1 1 1 2 2 2 1 3 3 0 0 0 2 2 3 3 3 3 3 4 5 5 6 5 7 8 6 6 5 6 5 5 6 5 6 5 4 4 5 5 5 6 6 6 5 5 6 2 2 1 1 4 3
1 2 3 3 3 3 2 3 4 3 4 5 4 5 4 4 4 3 2 3 3 3 3 3 3 2 2 2 0 0 0 0 0 1 1 0 1 1 1 3 1 2 1 0 1 1 1 1 0 1 1 2 2 4 5 5 5 6 6 5 6 5 7 7 5 5 5 5 6 6 6 5 5 5 5 3 3 5 4 5 3 2 3 2 3
2 2 2 2 2 1 3 3 4 4 4 3 6 6 3 4 5 6 5 4 3 4 4 2 3 2 2 2 2 3 3 2 2 3 2 2 1 2 3 1 0 1 3 4 2 2 3 1 2 1 0 0 1 2 3 4 4 4 5 4 5 9 10 9 6 6 7 6 6 6 5 3 4 4 5 3 1 1 3 4 4 2 3 3 3
2 2 3 1 5 2 2 3 2 3 2 3 3 4 4 4 3 4 5 5 6 4 3 3 3 2 2 2 3 3 2 2 2 2 1 1 1 2 2 2 1 1 3 0 4 4 3 3 4 3 4 3 2 2 2 5 3 4 3 3 7 8 8 8 10 10 8 5 6 5 6 4 4 3 2 5 4 0 1 4 5 4 0 5 3
1 2 2 1 4 3 1 2 2 3 2 4 4 4 4 4 4 3 3 3 4 5 5 4 5 3 2 3 2 2 2 2 2 2 2 1 1 2 2 1 3 3 3 3 1 3 3 5 5 4 4 4 1 6 5 4 3 2 3 4 6 6 7 8 6 7 7 5 4 5 5 4 5 5 4 4 4 4 1 2 4 2 2 1 4
Wind_Direction
13 27 17 18 23 15 12 8 2 359 354 355 356 353 350 345 340 334 333 332 327 321 325 324 323 318 310 301 296 291 283 280 261 243 241 236 231 224 236 257 257 255 233 231 233 237 221 209 200 208 205 206 197 194 197 200 193 195 188 177 174 172 168 172 181 137 113 114 154 186 203 225 231 176 144 156 171 184 191 157 151 160 167 169 177
18 16 20 14 21 15 15 17 1 7 0 0 358 355 353 350 345 341 337 335 334 327 331 337 335 329 318 306 296 293 290 289 270 247 244 235 222 216 229 229 229 225 228 239 238 250 247 212 204 198 201 206 203 200 196 199 190 192 186 176 181 174 180 174 183 165 157 137 157 186 155 158 241 185 148 156 171 182 179 136 156 163 170 167 173
16 20 17 16 11 17 15 13 7 15 11 3 2 359 353 0 351 346 346 346 343 346 352 350 346 336 323 307 291 287 288 286 276 257 230 277 270 214 219 243 259 252 244 247 249 245 241 232 219 192 181 206 207 210 201 198 195 187 187 180 188 176 197 195 173 169 163 174 169 175 178 186 200 206 152 162 166 181 163 156 161 171 170 172 175
21 23 17 12 8 15 21 11 10 20 14 9 2 3 359 4 355 351 353 353 351 353 351 350 346 339 328 316 303 293 288 293 301 288 266 252 256 272 306 224 245 256 270 269 261 270 275 263 232 172 202 212 207 215 217 207 205 153 166 180 193 174 195 212 192 170 172 161 180 175 172 178 222 257 150 159 162 182 169 164 170 181 175 173 177
25 24 17 10 12 16 17 9 18 20 16 11 2 7 10 6 4 357 355 357 357 353 350 348 347 346 338 331 327 330 335 322 308 303 279 286 327 301 246 251 258 244 232 231 249 253 238 234 232 203 214 213 210 212 207 217 187 167 179 162 194 193 190 197 187 170 160 159 136 141 149 109 199 235 182 158 170 180 187 175 183 189 183 169 179
24 27 21 14 14 14 15 11 15 19 13 16 12 7 11 13 9 3 0 359 359 358 354 352 351 348 347 338 352 355 360 7 7 350 330 296 294 293 304 287 280 268 267 273 263 266 247 228 218 201 215 220 214 214 211 214 200 171 118 132 186 203 185 185 180 164 163 159 145 139 139 145 223 234 245 172 169 175 194 196 182 186 189 172 182
26 27 22 20 17 15 12 11 12 12 16 20 13 12 13 14 14 11 5 0 1 2 356 354 353 347 351 5 25 24 27 24 18 8 351 348 340 305 283 267 265 278 276 266 269 267 263 248 246 210 208 212 211 211 214 204 204 90 143 163 179 190 186 187 177 174 165 147 145 155 147 151 161 239 245 208 176 174 175 199 197 183 181 178 167
28 26 26 25 18 17 16 10 10 12 10 15 18 14 13 13 14 16 11 8 4 3 359 357 355 355 360 6 21 20 18 21 16 5 358 349 343 341 325 302 279 269 261 266 270 271 279 272 266 240 217 210 207 202 203 218 172 163 173 155 164 183 189 177 175 177 170 161 156 168 176 159 176 219 224 204 174 176 184 187 190 188 176 177 150
27 28 29 24 20 17 17 14 13 13 12 12 15 15 13 14 12 15 19 14 8 4 1 2 1 2 359 2 14 29 26 17 13 1 352 347 341 332 328 324 314 289 277 272 253 247 247 266 266 260 230 213 210 213 195 196 158 161 161 160 171 177 171 170 169 177 179 173 170 172 184 181 192 210 223 208 175 180 178 178 177 184 163 165 154
28 28 31 26 21 24 20 17 18 18 15 14 15 14 14 15 12 11 17 18 14 6 5 4 7 4 3 5 3 28 26 19 2 359 359 349 333 332 328 329 326 310 290 281 290 279 243 236 244 255 251 213 201 207 201 201 196 190 175 174 170 178 173 169 172 174 177 178 188 184 183 199 197 207 220 220 180 168 166 167 167 181 159 165 172
35 30 28 23 25 27 27 21 19 21 17 15 13 14 13 14 12 10 15 18 18 13 9 11 8 4 5 4 4 12 20 6 359 359 354 352 347 331 323 315 311 307 294 293 289 290 309 270 265 268 263 239 213 176 182 185 174 178 173 171 178 176 177 175 176 173 176 181 188 198 196 193 208 196 210 213 180 157 163 162 162 174 169 165 185
31 29 24 27 27 28 32 23 24 23 20 18 14 12 12 15 15 8 9 12 13 19 18 17 10 4 4 4 6 5 12 2 359 357 355 350 345 329 302 301 309 308 303 281 265 278 296 311 273 173 248 271 261 176 178 178 173 173 178 173 192 215 200 181 167 173 181 180 191 198 200 204 209 188 192 209 195 158 162 161 166 175 179 173 178
31 26 24 25 28 21 17 26 32 28 24 21 15 16 13 15 11 7 9 7 7 14 25 16 21 13 6 3 359 1 10 2 358 356 354 351 345 337 300 295 301 305 312 312 302 276 109 286 301 238 231 219 222 317 182 129 137 159 177 181 175 195 171 104 147 170 188 194 194 198 202 195 191 203 191 168 36 206 160 160 177 172 180 184 187
32 27 27 26 27 20 23 16 14 33 33 27 25 22 18 16 12 6 5 5 7 8 13 22 24 22 12 5 1 359 9 1 359 357 355 351 345 336 309 317 303 302 301 297 287 24 354 291 282 296 231 147 197 207 231 190 155 148 153 150 170 196 120 124 140 139 173 220 198 202 204 180 177 182 178 155 172 188 170 208 184 180 182 188 198
34 32 29 27 28 20 18 13 14 19 20 25 28 34 27 21 17 12 9 6 7 4 3 13 17 18 17 11 5 4 9 6 3 359 357 352 345 335 326 326 324 323 319 311 326 192 259 264 296 306 342 133 159 258 196 232 145 127 161 168 168 183 51 45 55 113 132 254 222 96 57 22 53 59 19 43 152 171 171 197 217 179 147 109 69
31 33 33 34 32 24 20 17 14 15 18 18 20 22 30 23 21 18 20 18 15 8 1 6 10 12 17 14 6 7 7 9 6 3 359 355 347 340 334 332 336 340 349 348 10 25 16 5 345 148 187 217 207 123 209 199 188 188 184 177 107 96 57 58 278 300 1 321 86 99 101 87 54 73 21 5 53 116 124 128 141 126 127 120 124
24 23 37 37 35 27 23 19 14 12 21 21 17 13 16 17 15 20 25 28 23 18 6 6 6 9 12 18 11 9 8 10 6 4 3 0 356 345 339 336 344 355 0 350 15 57 32 11 358 346 311 256 177 174 203 196 186 191 191 165 137 124 104 105 62 57 69 85 95 100 100 86 69 53 35 29 30 353 139 137 181 156 134 137 121
26 27 32 37 40 33 22 21 19 14 19 23 20 17 14 16 9 0 17 30 30 25 13 9 9 11 13 13 15 13 7 10 7 4 4 4 3 350 355 355 352 358 358 2 23 36 34 32 22 358 345 341 339 199 217 197 324 315 185 141 147 137 134 114 83 53 75 92 98 100 96 87 74 58 49 41 29 20 320 192 175 143 145 143 131
31 20 37 41 38 41 30 20 19 17 21 23 23 22 15 11 11 4 4 17 31 30 22 13 13 15 19 14 12 13 12 8 7 6 7 7 7 357 3 352 354 359 6 1 14 19 10 10 15 9 351 342 359 36 16 248 195 192 184 159 150 152 153 148 125 124 127 105 96 97 79 70 64 65 52 47 43 41 52 50 7 175 159 141 129
34 23 28 38 44 41 30 26 23 22 20 20 28 27 18 15 11 7 7 6 18 32 25 20 14 15 19 20 19 16 13 10 8 7 9 11 10 10 7 7 6 6 11 5 3 11 7 3 3 3 349 2 9 15 56 26 204 206 200 189 158 141 138 143 143 128 123 122 114 99 97 82 73 59 49 46 44 40 45 37 40 20 227 152 147
40 28 32 36 37 33 39 34 23 25 22 23 24 22 21 25 13 10 6 5 10 21 24 18 16 16 20 22 22 15 14 9 4 7 8 10 12 13 6 12 360 4 6 11 12 11 7 3 2 357 353 357 24 19 19 25 13 211 174 216 163 133 139 142 148 142 120 108 104 98 94 93 80 72 64 54 46 41 44 45 40 62 94 93 95
26 32 28 38 53 41 38 47 28 26 24 21 22 23 25 26 21 9 8 6 6 15 14 8 14 16 22 17 20 12 5 8 7 4 6 8 11 14 15 12 5 5 12 21 16 18 10 2 4 359 4 359 13 39 27 24 24 10 124 127 127 131 129 136 139 121 116 118 115 108 104 88 80 77 74 72 67 60 57 48 50 55 39 82 126
26 20 31 35 56 46 36 44 38 22 24 16 24 24 27 29 21 10 12 6 9 11 13 1 7 14 15 19 16 16 9 3 8 7 4 4 9 11 13 14 7 15 18 19 18 13 7 5 360 12 16 9 6 26 38 32 30 27 25 120 122 116 120 124 117 124 132 126 110 101 99 101 94 86 81 82 74 67 66 63 69 68 67 60 50
11 360 35 40 41 51 31 34 53 36 22 9 16 24 31 38 23 16 13 11 11 11 11 2 358 16 7 14 14 15 14 6 2 7 5 2 4 10 9 10 13 11 17 20 12 7 10 6 12 17 22 18 6 15 36 37 37 39 37 24 65 91 124 141 150 125 98 89 87 85 84 83 87 82 76 79 88 86 77 73 71 76 83 86 83
27 23 23 29 35 53 32 22 61 57 34 12 12 21 18 39 27 16 13 17 17 15 12 4 1 16 14 8 7 4 8 6 357 1 359 359 360 3 9 7 10 10 15 15 14 13 13 14 17 21 25 26 15 6 25 33 30 40 41 32 29 46 45 57 66 82 84 81 85 79 69 65 70 81 90 88 82 77 81 80 76 78 79 77 74
51 32 13 29 31 35 39 22 32 70 56 23 24 27 18 33 38 18 17 16 15 19 16 11 7 10 26 10 2 1 360 357 355 355 353 352 354 359 3 7 6 9 12 9 9 15 16 16 17 17 24 26 30 22 21 26 35 32 40 45 40 41 50 55 58 66 74 74 69 72 68 62 54 48 50 59 73 85 98 101 101 89 84 86 78
58 42 15 11 33 24 42 20 9 37 62 39 40 28 25 38 46 30 23 15 16 18 21 13 9 9 15 11 1 2 2 0 357 350 351 346 342 347 4 1 4 9 11 5 6 8 15 18 20 22 24 27 29 27 21 32 36 27 29 40 45 44 50 59 61 64 58 62 64 66 66 64 58 51 49 48 52 44 49 98 100 99 98 92 92
42 59 43 10 4 17 30 18 10 3 57 64 49 26 27 29 55 49 24 19 21 22 27 20 8 8 13 14 2 1 359 357 1 351 339 338 334 338 351 1 7 8 9 1 1 7 13 16 23 21 21 23 23 24 23 27 38 35 28 30 41 47 50 64 65 58 49 44 53 59 61 58 56 55 54 53 43 34 31 60 86 96 95 97 89
22 28 60 42 358 352 23 4 8 13 30 94 75 59 23 6 56 81 53 43 16 22 41 33 13 8 15 14 1 359 359 352 346 334 318 318 326 336 344 353 356 2 4 4 8 20 22 26 19 22 22 23 22 22 19 22 27 34 31 21 28 40 44 45 57 56 49 48 44 41 48 55 58 54 52 50 40 32 22 42 39 68 85 90 104
22 18 15 47 18 354 22 13 351 7 24 15 119 107 23 55 9 65 126 197 99 19 357 58 1 359 15 15 12 4 354 328 316 326 331 338 342 345 340 334 346 355 353 8 22 29 30 29 26 21 20 25 28 27 22 22 27 27 27 26 30 34 38 42 47 48 49 51 46 49 42 47 48 46 50 51 40 35 31 43 42 53 67 64 81
41 32 0 1 22 7 14 24 339 351 30 11 348 53 149 37 30 47 78 108 114 245 341 304 337 348 0 13 11 341 340 338 342 335 339 345 337 341 341 336 341 355 354 12 25 31 24 32 25 23 23 27 30 26 26 29 29 32 32 35 37 37 40 44 39 44 52 55 49 44 42 46 44 38 47 44 50 37 30 32 47 48 59 61 71
31 19 35 338 333 45 2 19 352 346 23 5 12 359 6 45 149 262 278 248 242 283 293 302 300 317 356 17 354 2 2 354 346 340 343 349 346 335 336 334 331 347 345 5 37 33 32 34 27 23 20 26 27 26 27 30 27 29 31 40 40 35 42 44 42 61 62 64 68 65 63 62 63 61 55 49 45 40 35 38 37 45 45 48 62
85 15 29 0 332 36 42 15 7 340 17 359 13 13 2 1 4 23 195 245 257 256 270 268 275 284 340 23 32 23 8 359 356 345 340 339 344 339 331 328 330 337 1 36 43 39 39 40 38 31 27 23 22 23 27 30 31 30 28 39 42 34 45 50 53 61 67 74 80 81 82 84 86 87 88 88 87 84 64 61 46 58 59 62 49
74 60 40 16 358 333 19 27 16 343 21 344 353 17 10 7 358 357 6 28 261 234 239 257 265 260 258 26 30 21 12 2 358 355 348 343 341 344 342 315 319 334 30 40 31 30 38 46 50 50 45 35 27 26 31 30 28 31 30 37 40 43 47 48 53 56 57 58 65 76 76 81 86 86 83 77 65 69 70 63 62 59 45 51 53
107 154 107 35 344 348 348 47 328 6 25 350 358 20 351 7 343 4 11 15 12 0 10 158 227 250 61 38 30 26 14 4 4 358 0 357 356 351 347 359 14 12 21 34 41 41 36 34 41 57 61 55 51 45 40 40 42 44 47 44 46 42 42 44 49 48 52 50 58 59 66 69 68 76 79 68 57 55 49 45 33 47 66 51 58
75 47 49 26 352 333 316 316 17 36 13 355 6 358 359 355 358 10 353 27 19 5 356 14 17 30 45 54 35 26 23 17 4 2 5 4 359 359 10 1 13 16 9 14 26 43 52 48 45 38 46 67 81 73 60 51 44 45 46 49 47 50 54 56 50 48 35 44 43 46 53 66 71 65 56 59 69 72 66 56 49 40 49 42 41
352 65 39 18 350 324 340 343 76 360 10 354 15 341 33 355 4 1 358 8 25 14 357 358 2 23 19 27 33 9 25 33 14 9 1 11 3 9 13 8 8 2 352 353 358 46 39 43 54 52 44 38 48 65 76 65 57 54 51 51 47 47 49 56 63 60 60 48 29 29 32 23 8 100 102 96 83 75 72 66 48 42 32 46 35
63 77 60 16 344 296 25 351 44 355 47 20 357 7 19 334 11 357 358 2 30 17 348 2 2 19 12 3 13 360 2 28 22 21 12 9 12 6 8 4 2 4 346 345 352 27 46 40 33 55 66 55 50 54 54 55 54 66 76 66 53 52 54 69 52 62 36 333 334 345 29 49 52 51 54 65 58 60 43 51 75 46 17 8 18
105 107 138 194 241 287 307 87 84 324 54 353 11 9 28 324 23 349 355 360 13 360 338 11 6 39 21 2 2 347 354 10 23 25 21 17 359 3 7 9 7 2 352 348 356 18 33 45 36 25 40 63 77 76 74 67 58 56 73 94 231 277 284 258 76 41 37 34 32 33 40 42 53 62 67 59 46 40 48 45 37 50 66 37 29
343 177 196 211 262 344 311 352 311 55 347 57 39 355 355 12 353 354 6 357 343 344 358 4 31 63 27 2 357 341 341 359 30 23 27 26 15 12 5 3 1 3 352 354 0 5 5 24 31 44 34 32 38 79 118 138 173 240 255 90 27 9 19 44 47 47 55 54 43 44 67 62 53 51 53 71 82 80 72 59 41 24 27 60 21
342 348 322 339 351 329 312 39 320 62 346 63 17 22 4 340 351 343 347 343 345 352 3 8 29 96 59 304 287 295 299 349 28 34 33 36 30 21 5 0 1 3 356 354 2 8 10 14 14 17 15 10 15 6 38 145 102 128 127 95 74 68 43 23 28 30 25 25 22 23 39 47 54 56 57 334 334 9 111 135 119 109 20 352 334
329 328 318 2 319 331 326 6 327 65 14 63 43 29 344 327 325 37 314 316 23 13 346 5 1 103 176 259 274 300 293 355 19 37 43 43 44 31 18 0 10 4 354 358 356 357 3 6 4 3 360 345 342 345 346 359 217 192 123 90 84 115 108 76 42 81 82 57 31 19 21 33 41 26 17 36 58 41 24 22 44 45 21 6 37
303 311 330 341 322 332 347 338 344 34 357 14 19 73 298 306 338 334 345 354 30 339 17 6 16 18 167 232 269 283 323 16 6 24 55 56 56 69 35 22 358 1 358 359 357 4 358 6 2 356 352 358 15 22 19 12 14 357 37 89 134 138 130 167 210 67 73 69 26 356 322 292 293 49 56 66 59 49 31 27 28 10 19 63 46
294 312 343 324 350 330 349 331 17 336 27 324 138 154 298 338 16 348 357 358 5 349 18 34 41 331 333 206 225 265 9 39 18 3 29 57 77 92 97 48 351 357 7 2 3 6 358 347 335 335 350 3 9 7 14 3 6 10 343 13 41 354 27 46 43 44 35 42 24 344 308 97 90 87 50 48 102 108 74 47 35 15 14 49 70
291 333 326 342 333 344 338 339 336 323 38 300 286 103 92 14 10 6 351 337 11 8 338 90 17 352 330 0 356 18 346 47 46 31 359 12 26 91 93 58 32 8 358 6 8 348 5 347 341 350 3 6 359 4 352 355 1 351 7 39 39 38 51 51 30 40 49 42 28 10 334 311 81 68 53 360 343 63 56 61 37 31 51 29 42
291 304 336 334 352 349 317 335 307 9 339 302 350 12 32 58 16 8 339 325 332 22 334 350 101 171 298 9 14 355 350 21 57 82 11 345 4 58 102 107 82 32 359 0 337 345 346 12 5 1 7 358 2 350 337 334 333 347 351 34 50 36 26 30 28 15 19 44 35 354 353 16 49 42 41 31 20 57 72 44 44 25 90 90 50
290 353 329 356 349 328 336 322 330 349 301 3 7 350 342 350 19 72 14 347 324 337 340 4 100 287 86 44 41 17 347 341 32 69 73 78 340 359 113 151 133 267 263 185 319 360 28 30 7 16 350 342 343 336 336 337 335 333 15 47 55 46 36 40 42 27 359 0 37 25 21 32 27 30 31 32 20 12 356 359 110 314 312 148 168
321 15 343 340 356 330 331 326 323 351 358 3 2 356 5 350 332 8 31 3 343 335 337 350 331 23 68 86 267 278 228 151 270 98 66 348 111 343 14 61 52 161 171 248 168 285 255 163 281 338 288 307 333 334 321 335 15 42 39 30 27 26 41 44 46 28 355 357 9 3 351 43 44 30 22 44 27 352 347 335 341 311 314 82 108
87 30 329 2 319 305 324 337 4 11 343 354 16 339 346 354 4 3 352 347 12 350 354 339 333 30 24 6 4 14 20 24 33 24 36 17 116 111 85 129 216 255 209 192 195 202 245 250 216 227 286 355 213 284 305 23 44 40 47 40 19 31 43 44 47 29 6 5 3 3 355 37 50 25 1 358 13 25 332 314 300 237 160 91 56
88 52 300 355 300 30 6 17 342 342 349 30 352 317 359 11 6 352 347 359 2 352 337 348 0 19 44 325 12 20 42 15 40 16 64 327 29 110 143 152 289 295 307 220 188 218 201 213 221 214 221 223 219 195 59 62 39 46 43 31 26 32 36 41 44 34 29 359 354 338 339 349 49 29 340 328 309 149 297 287 290 326 32 114 106
142 180 277 353 308 313 354 359 339 340 21 18 343 348 33 355 332 4 358 5 356 341 341 357 351 342 342 13 50 0 19 25 44 18 24 321 29 67 91 204 213 239 263 261 207 172 195 194 208 227 236 247 218 89 97 111 93 85 70 57 49 40 34 38 32 7 15 4 333 335 341 1 19 1 358 337 347 329 281 359 330 331 350 139 140